Location: Monroe
(41.9160°N, 83.3980°W)
Time: 05:49:48
(UTC-05:00)

Amateur Radio Satellites - All Passes

Search period start: 17 January 2017 05:19
Search period end: 18 January 2017 05:19
Location: Monroe, 41.9160°N, 83.3980°W

Satellite Date Start Highest point End Downlink Frequencies (MHz)
Time Altitude Azimuth
KKS-1 17 Jan 05:22:40 05:25:09 15° 269° (W) 05:27:38 437.445
Cosmos 2491 17 Jan 05:27:52 05:32:43 16° 302° (WNW) 05:37:35 435.465 / 435.565
GONETS M04 17 Jan 05:31:53 05:34:18 11° 53° (NE) 05:36:44
BRITE-PL 17 Jan 05:42:24 05:47:30 89° 103° (ESE) 05:52:09 437.365/2234.400
CUTE-I 17 Jan 05:54:49 05:58:44 20° 93° (E) 06:02:38 437.470
LilacSat-2 17 Jan 05:57:49 06:00:41 20° 94° (E) 06:03:33 437.200
PHONESAT 2.4 17 Jan 06:00:47 06:03:05 60° 177° (S) 06:05:22 2401.200-2431.200
ISS 17 Jan 06:02:44 06:05:58 62° 32° (NNE) 06:09:11 145.825
GOMX 1 17 Jan 06:06:26 06:10:57 61° 100° (E) 06:15:10 467.674
NOAA 18 17 Jan 06:10:21 06:13:24 15° 91° (E) 06:16:28 137.9125
CUSAT 1 17 Jan 06:12:04 06:13:31 11° 307° (NW) 06:15:01 437.405
AIST 2 17 Jan 06:18:56 06:23:00 45° 243° (WSW) 06:27:01 435.215
HORYU 2 17 Jan 06:20:53 06:25:20 80° 285° (WNW) 06:29:48 437.375
DANDE 17 Jan 06:21:37 06:24:10 17° 298° (WNW) 06:27:12 436.750
Cubesat XI-IV 17 Jan 06:35:51 06:41:00 48° 99° (E) 06:46:08 437.490
STRAND 1 17 Jan 06:35:59 06:40:50 47° 70° (ENE) 06:45:43 437.568
O/OREOS (USA 219) 17 Jan 06:51:44 06:55:36 29° 104° (ESE) 06:59:29 437.305
HO-68 17 Jan 06:54:22 06:58:49 17° 90° (E) 07:03:13 435.675
NOAA 15 17 Jan 06:58:38 07:03:59 82° 104° (ESE) 07:09:18 137.62
Cosmos 2499 17 Jan 06:58:59 07:05:51 44° 74° (ENE) 07:12:29 435.465 / 435.565
AO-7 17 Jan 07:00:08 07:04:34 16° 315° (NW) 07:08:59 29.400- 29.500
DOVE 4 17 Jan 07:05:07 07:09:23 81° 285° (WNW) 07:13:31 437.250
CANX-2 17 Jan 07:06:56 07:09:29 15° 91° (E) 07:12:02 2200.000
RS-15 17 Jan 07:12:41 07:23:26 32° 27° (NNE) 07:33:57 29.354- 29.394
BRITE-PL 17 Jan 07:23:24 07:25:03 12° 303° (WNW) 07:26:41 437.365/2234.400
CINEMA 3 17 Jan 07:24:25 07:28:15 34° 97° (E) 07:32:07 145.822/145.860
GONETS M04 17 Jan 07:24:43 07:33:24 58° 77° (ENE) 07:42:04
SEEDS 17 Jan 07:26:20 07:28:36 14° 91° (E) 07:30:53 437.485
LilacSat-2 17 Jan 07:31:37 07:34:59 29° 290° (WNW) 07:38:21 437.200
CUTE-I 17 Jan 07:33:54 07:39:03 52° 290° (WNW) 07:44:13 437.470
PHONESAT 2.4 17 Jan 07:34:58 07:37:07 34° 195° (SSW) 07:39:18 2401.200-2431.200
COMPASS 1 17 Jan 07:39:26 07:41:19 13° 90° (E) 07:43:11 437.405
ISS 17 Jan 07:40:06 07:42:07 15° 228° (SW) 07:44:08 145.825
GOMX 1 17 Jan 07:46:12 07:48:26 14° 299° (WNW) 07:50:37 467.674
NOAA 18 17 Jan 07:49:09 07:54:36 71° 287° (WNW) 08:00:00 137.9125
AAUSAT CUBESAT 2 17 Jan 07:54:19 07:56:36 14° 91° (E) 07:58:52 437.432
CUTE 1.7 + AOD 2 17 Jan 08:12:52 08:17:10 71° 101° (E) 08:21:27 437.475
ZACube-1 17 Jan 08:14:08 08:15:26 11° 90° (E) 08:16:43 437.345
STRAND 1 17 Jan 08:16:29 08:20:15 21° 267° (W) 08:24:02 437.568
Cubesat XI-IV 17 Jan 08:16:36 08:20:45 24° 296° (WNW) 08:24:53 437.490
PRISM 17 Jan 08:30:43 08:34:32 36° 70° (ENE) 08:38:23 437.425
O/OREOS (USA 219) 17 Jan 08:31:07 08:34:57 27° 301° (WNW) 08:38:49 437.305
HO-68 17 Jan 08:40:08 08:47:21 86° 289° (WNW) 08:54:31 435.675
NOAA 15 17 Jan 08:40:16 08:43:03 15° 301° (WNW) 08:45:51 137.62
CANX-2 17 Jan 08:41:26 08:45:35 47° 287° (WNW) 08:49:43 2200.000
CUBEBUG 2 17 Jan 08:44:13 08:48:28 64° 101° (E) 08:52:51 437.445
Cosmos 2499 17 Jan 08:52:32 08:58:42 32° 274° (W) 09:04:45 435.465 / 435.565
Oscar 11 17 Jan 08:55:38 08:59:21 27° 95° (E) 09:03:03 145.826/435.025
SEEDS 17 Jan 09:00:27 09:04:35 50° 287° (WNW) 09:08:41 437.485
CINEMA 3 17 Jan 09:02:09 09:05:11 20° 293° (WNW) 09:08:13 145.822/145.860
SO-50 17 Jan 09:10:47 09:15:29 70° 120° (ESE) 09:20:07 436.795
COMPASS 1 17 Jan 09:13:04 09:17:12 55° 287° (WNW) 09:21:18 437.405
PCSat 17 Jan 09:15:00 09:18:00 15° 38° (NE) 09:20:59 145.827
UWE-3 17 Jan 09:20:33 09:24:52 80° 285° (WNW) 09:29:18 435.000/436.395/437.385
UNISAT 6 17 Jan 09:21:57 09:25:54 37° 71° (ENE) 09:29:51 437.425
GONETS M04 17 Jan 09:22:16 09:29:42 32° 277° (W) 09:37:08
RS-15 17 Jan 09:25:48 09:38:16 79° 55° (NE) 09:50:14 29.354- 29.394
FUNcube-1 17 Jan 09:26:52 09:31:11 66° 101° (E) 09:35:35 145.935
AAUSAT CUBESAT 2 17 Jan 09:28:17 09:32:20 48° 287° (WNW) 09:36:20 437.432
NOAA 18 17 Jan 09:33:10 09:34:16 11° 305° (NW) 09:35:22 137.9125
TIGRISAT 17 Jan 09:36:17 09:40:24 50° 73° (ENE) 09:44:31 435.000
DELFI C3 17 Jan 09:43:10 09:46:41 29° 96° (E) 09:50:10 145.870
ZACube-1 17 Jan 09:47:48 09:52:06 67° 285° (WNW) 09:56:30 437.345
JAS-2 17 Jan 09:49:56 09:54:20 27° 63° (ENE) 09:59:04 435.910
ANTELSAT 17 Jan 09:50:24 09:54:39 78° 76° (ENE) 09:58:56 437.575/2403.000
CUTE 1.7 + AOD 2 17 Jan 09:50:56 09:52:24 12° 298° (WNW) 09:53:52 437.475
QB50P1 17 Jan 10:02:33 10:03:18 10° 61° (ENE) 10:04:02 145.935-145.965
POLYITAN 1 17 Jan 10:04:56 10:06:13 11° 62° (ENE) 10:07:31 437.675
QB50P2 17 Jan 10:05:32 10:07:17 12° 62° (ENE) 10:09:02 145.880/145.840
PRISM 17 Jan 10:06:58 10:09:56 19° 266° (W) 10:12:55 437.425
CUBEBUG 2 17 Jan 10:22:45 10:24:36 13° 297° (WNW) 10:26:27 437.445
POPSAT HIP 1 17 Jan 10:26:39 10:29:35 19° 66° (ENE) 10:32:32 437.405
HO-68 17 Jan 10:29:34 10:34:04 18° 307° (NW) 10:38:33 435.675
HUMSAT D 17 Jan 10:31:19 10:35:32 58° 100° (E) 10:39:47 437.325/437.525
Oscar 11 17 Jan 10:31:42 10:35:24 28° 291° (WNW) 10:39:06 145.826/435.025
DUCHIFAT 1 17 Jan 10:41:40 10:44:59 23° 67° (ENE) 10:48:18 145.980
NANOSAT C BR1 17 Jan 10:44:59 10:48:32 27° 69° (ENE) 10:52:05 145.865
SO-50 17 Jan 10:53:05 10:56:25 19° 319° (NW) 10:59:43 436.795
PCSat 17 Jan 10:56:54 11:02:21 74° 59° (ENE) 11:07:46 145.827
UNISAT 6 17 Jan 10:59:45 11:02:45 18° 267° (W) 11:05:45 437.425
FUNcube-1 17 Jan 11:05:01 11:06:55 13° 297° (WNW) 11:08:49 145.935
TIGRISAT 17 Jan 11:15:11 11:17:23 14° 269° (W) 11:19:36 435.000
DELFI C3 17 Jan 11:18:14 11:21:20 22° 292° (WNW) 11:24:24 145.870
BUGSAT 1 17 Jan 11:30:51 11:34:22 29° 69° (ENE) 11:37:53 437.445
BY70-1 17 Jan 11:31:49 11:35:16 78° 100° (E) 11:38:32 436.1900
QB50P1 17 Jan 11:34:15 11:38:27 76° 259° (WSW) 11:42:39 145.935-145.965
JAS-2 17 Jan 11:34:23 11:39:15 38° 264° (W) 11:44:30 435.910
POLYITAN 1 17 Jan 11:37:15 11:41:25 70° 257° (WSW) 11:45:38 437.675
QB50P2 17 Jan 11:38:23 11:42:33 63° 259° (W) 11:46:44 145.880/145.840
RS-15 17 Jan 11:39:35 11:49:29 31° 258° (WSW) 11:59:07 29.354- 29.394
Cosmos 2491 17 Jan 11:42:54 11:44:54 11° 53° (NE) 11:46:53 435.465 / 435.565
CUBEBUG 1 17 Jan 11:47:33 11:51:19 28° 96° (E) 11:55:03 437.445
SPROUT 17 Jan 11:48:55 11:50:56 13° 91° (E) 11:52:57 437.525
AISAT 17 Jan 11:54:38 11:58:05 22° 94° (E) 12:01:31 437.250
ESTCUBE 1 17 Jan 12:00:41 12:05:14 70° 102° (ESE) 12:09:45 437.505/2401.250
POPSAT HIP 1 17 Jan 12:01:11 12:05:05 38° 262° (W) 12:09:01 437.405
HUMSAT D 17 Jan 12:08:31 12:10:41 14° 296° (WNW) 12:12:51 437.325/437.525
DUCHIFAT 1 17 Jan 12:16:52 12:20:31 29° 263° (W) 12:24:12 145.980
NANOSAT C BR1 17 Jan 12:20:45 12:24:12 25° 265° (W) 12:27:40 145.865
Gurwin Techsat 1B 17 Jan 12:23:50 12:27:29 19° 62° (ENE) 12:31:09 435.225
VELOX 1 17 Jan 12:27:39 12:31:55 48° 100° (E) 12:36:09 145.980
AO-7 17 Jan 12:29:04 12:29:25 10° 38° (NE) 12:29:45 29.400- 29.500
Oscar 19 17 Jan 12:36:40 12:41:34 43° 69° (ENE) 12:46:29 437.125/150
PCSat 17 Jan 12:42:01 12:45:05 15° 256° (WSW) 12:48:07 145.827
50 SAT 17 Jan 13:03:49 13:07:24 74° 283° (WNW) 13:10:55 437.505
BUGSAT 1 17 Jan 13:06:30 13:09:44 22° 265° (W) 13:12:57 437.445
DX 1 17 Jan 13:11:32 13:15:53 70° 102° (ESE) 13:20:11 434.975-435.025
ITAMSAT 1 17 Jan 13:15:33 13:17:17 12° 57° (ENE) 13:19:01 435.822/435.867
CUSAT 1 17 Jan 13:16:16 13:21:33 19° 61° (ENE) 13:26:47 437.405
UKube-1 17 Jan 13:17:47 13:22:03 59° 101° (E) 13:26:17 .
SPROUT 17 Jan 13:23:02 13:27:10 53° 287° (WNW) 13:31:19 437.525
CUBEBUG 1 17 Jan 13:23:54 13:27:29 26° 293° (WNW) 13:31:03 437.445
TISAT 1 17 Jan 13:28:20 13:31:42 23° 95° (E) 13:35:02 437.305
AISAT 17 Jan 13:30:39 13:34:36 33° 291° (WNW) 13:38:32 437.250
Cosmos 2491 17 Jan 13:35:25 13:44:02 57° 77° (ENE) 13:52:38 435.465 / 435.565
ESTCUBE 1 17 Jan 13:39:24 13:41:27 13° 299° (WNW) 13:43:29 437.505/2401.250
YUBILEINY 17 Jan 13:45:05 13:51:59 27° 81° (E) 13:58:53 435.215
AIST 1 17 Jan 13:53:10 13:56:22 20° 87° (E) 13:59:34
Gurwin Techsat 1B 17 Jan 14:01:43 14:06:57 60° 259° (W) 14:12:13 435.225
VELOX 1 17 Jan 14:05:10 14:07:59 17° 296° (WNW) 14:10:48 145.980
BEESAT 17 Jan 14:05:22 14:07:20 12° 90° (E) 14:09:17 436.000
SWISSCUBE 17 Jan 14:06:05 14:08:40 14° 91° (E) 14:11:16 437.505
AO-7 17 Jan 14:12:15 14:19:57 43° 61° (ENE) 14:27:41 29.400- 29.500
Oscar 19 17 Jan 14:16:55 14:21:02 23° 266° (W) 14:25:11 437.125/150
DX 1 17 Jan 14:49:49 14:51:29 12° 299° (WNW) 14:53:09 434.975-435.025
ITAMSAT 1 17 Jan 14:50:45 14:55:55 84° 77° (ENE) 15:01:07 435.822/435.867
AO-85 17 Jan 14:54:04 14:58:42 53° 119° (ESE) 15:03:01 145.980
UKube-1 17 Jan 14:55:24 14:57:35 14° 298° (WNW) 14:59:45 .
CUSAT 1 17 Jan 14:56:37 15:04:39 82° 80° (E) 15:12:18 437.405
TISAT 1 17 Jan 15:03:42 15:07:19 29° 291° (WNW) 15:10:56 437.305
ITUPSAT 1 17 Jan 15:03:52 15:08:32 48° 100° (E) 15:13:10 437.325
DANDE 17 Jan 15:11:44 15:18:50 45° 74° (ENE) 15:26:42 436.750
Cosmos 2504 17 Jan 15:12:10 15:20:32 52° 90° (E) 15:28:28 435.465 / 435.565
BRITE-PL 17 Jan 15:16:29 15:19:49 16° 61° (ENE) 15:23:09 437.365/2234.400
AIST 1 17 Jan 15:29:43 15:33:42 34° 284° (WNW) 15:37:42
Cosmos 2491 17 Jan 15:32:58 15:40:22 32° 277° (W) 15:47:49 435.465 / 435.565
YUBILEINY 17 Jan 15:39:14 15:47:59 67° 281° (W) 15:56:49 435.215
BEESAT 17 Jan 15:40:49 15:45:35 71° 286° (WNW) 15:50:21 436.000
GOMX 1 17 Jan 15:41:11 15:41:38 10° 58° (ENE) 15:42:03 467.674
SWISSCUBE 17 Jan 15:42:07 15:46:52 62° 287° (WNW) 15:51:35 437.505
HORYU 2 17 Jan 15:46:30 15:47:24 11° 60° (ENE) 15:48:17 437.375
SO-50 17 Jan 16:03:21 16:05:04 12° 34° (NE) 16:06:47 436.795
AO-7 17 Jan 16:04:43 16:12:37 46° 260° (W) 16:20:37 29.400- 29.500
M-CUBED/EXP-1 PRIME 17 Jan 16:05:30 16:07:57 19° 99° (E) 16:10:20 437.505
MOZHAYETS 4 17 Jan 16:06:26 16:11:04 68° 102° (ESE) 16:15:42
Cubesat XI-IV 17 Jan 16:22:32 16:24:15 12° 57° (ENE) 16:25:58 437.490
BEESAT 3 17 Jan 16:33:56 16:36:13 15° 110° (ESE) 16:38:31 437.485
ITAMSAT 1 17 Jan 16:34:23 16:36:01 11° 271° (W) 16:37:39 435.822/435.867
DOVE 4 17 Jan 16:35:35 16:37:46 13° 62° (ENE) 16:39:55 437.250
AO-85 17 Jan 16:35:53 16:39:21 21° 315° (NW) 16:42:40 145.980
STARS 17 Jan 16:37:51 16:41:06 20° 94° (E) 16:44:21 437.465
CUSAT 1 17 Jan 16:40:00 16:45:40 22° 278° (W) 16:51:12 437.405
NOAA 15 17 Jan 16:41:31 16:45:05 19° 61° (ENE) 16:48:39 137.62
LilacSat-2 17 Jan 16:42:01 16:43:03 11° 63° (ENE) 16:44:05 437.200
ITUPSAT 1 17 Jan 16:42:34 16:46:00 20° 296° (WNW) 16:49:26 437.325
CUBESAT XI-V 17 Jan 16:43:31 16:47:27 26° 94° (E) 16:51:19 437.345
AUBIESAT-1 17 Jan 16:44:26 16:47:45 47° 105° (ESE) 16:50:57 437.475
BRITE-PL 17 Jan 16:51:53 16:57:33 82° 259° (WSW) 17:03:16 437.365/2234.400
DANDE 17 Jan 16:54:30 17:01:31 43° 269° (W) 17:09:12 436.750
O/OREOS (USA 219) 17 Jan 17:00:37 17:05:05 61° 65° (ENE) 17:09:33 437.305
Cosmos 2504 17 Jan 17:06:18 17:14:07 36° 288° (WNW) 17:21:35 435.465 / 435.565
KKS-1 17 Jan 17:10:42 17:15:09 79° 286° (WNW) 17:19:34 437.445
BEESAT 2 17 Jan 17:11:03 17:13:35 17° 111° (ESE) 17:16:09 435.950
GOMX 1 17 Jan 17:13:23 17:18:49 71° 74° (ENE) 17:24:03 467.674
CUTE-I 17 Jan 17:16:42 17:21:28 35° 67° (ENE) 17:26:15 437.470
HORYU 2 17 Jan 17:18:52 17:23:16 83° 258° (WSW) 17:27:42 437.375
HO-68 17 Jan 17:25:10 17:29:02 15° 51° (NE) 17:32:53 435.675
NOAA 18 17 Jan 17:36:12 17:40:59 32° 65° (ENE) 17:45:46 137.9125
M-CUBED/EXP-1 PRIME 17 Jan 17:39:40 17:42:27 23° 297° (WNW) 17:45:07 437.505
SO-50 17 Jan 17:41:55 17:46:26 66° 55° (NE) 17:50:51 436.795
YUBILEINY 17 Jan 17:42:36 17:46:44 14° 304° (NW) 17:50:53 435.215
MOZHAYETS 4 17 Jan 17:45:21 17:47:39 14° 298° (WNW) 17:49:57
Cubesat XI-IV 17 Jan 17:58:08 18:03:27 81° 74° (ENE) 18:08:47 437.490
CANX-2 17 Jan 18:01:10 18:02:51 12° 62° (ENE) 18:04:32 2200.000
BEESAT 3 17 Jan 18:09:40 18:13:26 47° 307° (NW) 18:17:15 437.485
DOVE 4 17 Jan 18:09:45 18:14:52 81° 257° (WSW) 18:19:44 437.250
LilacSat-2 17 Jan 18:13:09 18:16:50 56° 260° (W) 18:20:35 437.200
STARS 17 Jan 18:13:33 18:17:33 36° 290° (WNW) 18:21:33 437.465
NOAA 15 17 Jan 18:19:08 18:24:20 62° 258° (WSW) 18:29:37 137.62
SEEDS 17 Jan 18:19:46 18:20:56 11° 62° (ENE) 18:22:06 437.485
CUBESAT XI-V 17 Jan 18:20:38 18:24:49 33° 291° (WNW) 18:28:59 437.345
AUBIESAT-1 17 Jan 18:20:59 18:21:44 11° 303° (WNW) 18:22:30 437.475
CINEMA 3 17 Jan 18:26:13 18:30:16 34° 71° (ENE) 18:34:12 145.822/145.860
BRITE-PL 17 Jan 18:35:08 18:36:45 11° 274° (W) 18:38:22 437.365/2234.400
GONETS M04 17 Jan 18:37:24 18:39:24 11° 72° (ENE) 18:41:26
O/OREOS (USA 219) 17 Jan 18:41:55 18:43:55 13° 262° (W) 18:45:57 437.305
AAUSAT CUBESAT 2 17 Jan 18:46:21 18:47:22 11° 62° (ENE) 18:48:22 437.432
BEESAT 2 17 Jan 18:47:14 18:51:01 44° 308° (NW) 18:54:52 435.950
STRAND 1 17 Jan 18:47:18 18:50:20 16° 91° (E) 18:53:21 437.568
GOMX 1 17 Jan 18:54:09 18:57:17 15° 270° (W) 19:00:22 467.674
CUTE-I 17 Jan 18:56:53 19:01:31 30° 264° (W) 19:06:10 437.470
CUTE 1.7 + AOD 2 17 Jan 19:05:30 19:09:35 50° 73° (ENE) 19:13:44 437.475
HO-68 17 Jan 19:08:23 19:15:33 74° 71° (ENE) 19:22:44 435.675
NOAA 18 17 Jan 19:16:29 19:21:32 36° 262° (W) 19:26:35 137.9125
SO-50 17 Jan 19:24:05 19:26:18 14° 252° (WSW) 19:28:30 436.795
CANX-2 17 Jan 19:33:55 19:38:07 66° 258° (WSW) 19:42:23 2200.000
Cosmos 2499 17 Jan 19:35:12 19:42:51 39° 87° (E) 19:50:02 435.465 / 435.565
Cubesat XI-IV 17 Jan 19:41:55 19:44:07 13° 271° (W) 19:46:21 437.490
CUBEBUG 2 17 Jan 19:42:36 19:46:41 53° 74° (ENE) 19:50:44 437.445
Oscar 11 17 Jan 19:50:58 19:54:17 22° 67° (ENE) 19:57:38 145.826/435.025
SEEDS 17 Jan 19:51:49 19:56:00 73° 258° (WSW) 20:00:15 437.485
COMPASS 1 17 Jan 20:03:25 20:07:36 82° 258° (WSW) 20:11:50 437.405
CINEMA 3 17 Jan 20:04:01 20:07:28 21° 266° (W) 20:10:50 145.822/145.860
AIST 2 17 Jan 20:16:32 20:20:13 33° 115° (ESE) 20:23:58 435.215
UWE-3 17 Jan 20:17:43 20:21:52 83° 76° (ENE) 20:26:02 435.000/436.395/437.385
AAUSAT CUBESAT 2 17 Jan 20:18:03 20:22:12 73° 258° (WSW) 20:26:25 437.432
FUNcube-1 17 Jan 20:22:39 20:26:38 50° 73° (ENE) 20:30:38 145.935
STRAND 1 17 Jan 20:24:51 20:29:56 64° 287° (WNW) 20:35:01 437.568
GONETS M04 17 Jan 20:25:48 20:34:20 65° 92° (E) 20:42:58
DELFI C3 17 Jan 20:29:33 20:32:22 19° 66° (ENE) 20:35:11 145.870
CUTE 1.7 + AOD 2 17 Jan 20:43:28 20:45:43 14° 270° (W) 20:47:59 437.475
ZACube-1 17 Jan 20:43:42 20:47:50 84° 257° (WSW) 20:52:00 437.345
HO-68 17 Jan 20:58:44 21:03:53 21° 269° (W) 21:09:06 435.675
CUBEBUG 2 17 Jan 21:21:49 21:23:37 13° 269° (W) 21:25:27 437.445
HUMSAT D 17 Jan 21:22:45 21:26:33 39° 72° (ENE) 21:30:25 437.325/437.525
Oscar 11 17 Jan 21:26:20 21:30:14 33° 264° (W) 21:34:10 145.826/435.025
Cosmos 2499 17 Jan 21:27:46 21:35:50 45° 285° (WNW) 21:43:24 435.465 / 435.565
TIGRISAT 17 Jan 21:30:08 21:30:36 10° 89° (E) 21:31:04 435.000
ANTELSAT 17 Jan 21:42:31 21:45:14 16° 92° (E) 21:47:57 437.575/2403.000
PRISM 17 Jan 21:46:32 21:50:35 55° 100° (E) 21:54:36 437.425
BY70-1 17 Jan 21:48:27 21:50:08 14° 65° (ENE) 21:51:53 436.1900
AIST 2 17 Jan 21:55:12 21:58:42 26° 313° (NW) 22:02:17 435.215
FUNcube-1 17 Jan 22:01:13 22:03:10 13° 269° (W) 22:05:08 145.935
DELFI C3 17 Jan 22:03:14 22:06:54 35° 263° (W) 22:10:37 145.870
GONETS M04 17 Jan 22:24:35 22:31:48 28° 293° (WNW) 22:39:07
JAS-2 17 Jan 22:41:00 22:47:11 31° 95° (E) 22:53:45 435.910
SPROUT 17 Jan 22:43:42 22:45:08 12° 62° (ENE) 22:46:34 437.525
CUBEBUG 1 17 Jan 22:43:46 22:47:25 26° 68° (ENE) 22:51:05 437.445
ISS 17 Jan 22:44:05 22:46:02 15° 131° (SE) 22:47:58 145.825
UNISAT 6 17 Jan 22:48:59 22:53:25 84° 105° (ESE) 22:57:55 437.425
AISAT 17 Jan 22:52:19 22:55:44 22° 66° (ENE) 22:59:09 437.250
HUMSAT D 17 Jan 22:59:43 23:02:21 16° 268° (W) 23:05:00 437.325/437.525
ESTCUBE 1 17 Jan 23:00:08 23:04:37 66° 73° (ENE) 23:09:08 437.505/2401.250
TIGRISAT 17 Jan 23:03:20 23:07:44 74° 285° (WNW) 23:12:13 435.000
BY70-1 17 Jan 23:17:49 23:20:16 24° 264° (W) 23:22:55 436.1900
ANTELSAT 17 Jan 23:17:55 23:22:10 48° 287° (WNW) 23:26:29 437.575/2403.000
QB50P1 17 Jan 23:19:33 23:22:16 17° 92° (E) 23:24:58 145.935-145.965
POLYITAN 1 17 Jan 23:22:33 23:25:28 18° 93° (E) 23:28:23 437.675
PRISM 17 Jan 23:23:24 23:25:24 13° 297° (WNW) 23:27:24 437.425
QB50P2 17 Jan 23:23:31 23:26:38 20° 94° (E) 23:29:45 145.880/145.840
VELOX 1 17 Jan 23:24:55 23:29:09 44° 71° (ENE) 23:33:23 145.980
AO-85 17 Jan 23:25:19 23:29:06 44° 52° (NE) 23:32:50 145.980
50 SAT 17 Jan 23:38:32 23:41:55 42° 73° (ENE) 23:45:20 437.505
POPSAT HIP 1 17 Jan 23:45:20 23:49:05 31° 97° (E) 23:52:51 437.405
RS-15 17 Jan 23:48:45 23:59:51 50° 110° (ESE) 00:11:22 29.354- 29.394
YUBILEINY 17 Jan 23:55:17 23:58:55 13° 55° (NE) 00:02:33 435.215
DUCHIFAT 1 17 Jan 23:59:52 00:03:49 38° 98° (E) 00:07:44 145.980
NANOSAT C BR1 18 Jan 00:03:42 00:07:47 47° 99° (E) 00:11:50 145.865
DX 1 18 Jan 00:06:58 00:11:17 62° 73° (ENE) 00:15:37 434.975-435.025
UKube-1 18 Jan 00:12:14 00:16:26 51° 73° (ENE) 00:20:39 .
SPROUT 18 Jan 00:16:14 00:20:28 70° 258° (WSW) 00:24:43 437.525
ISS 18 Jan 00:18:56 00:22:10 64° 328° (NNW) 00:25:24 145.825
CUBEBUG 1 18 Jan 00:19:44 00:23:35 29° 264° (W) 00:27:28 437.445
TISAT 1 18 Jan 00:20:37 00:23:35 19° 66° (ENE) 00:26:33 437.305
JAS-2 18 Jan 00:25:33 00:32:21 56° 290° (WNW) 00:39:46 435.910
AISAT 18 Jan 00:27:52 00:31:59 36° 262° (W) 00:36:06 437.250
UNISAT 6 18 Jan 00:28:43 00:29:29 10° 299° (WNW) 00:30:14 437.425
ESTCUBE 1 18 Jan 00:40:03 00:41:51 12° 270° (W) 00:43:40 437.505/2401.250
BUGSAT 1 18 Jan 00:46:44 00:50:37 45° 99° (E) 00:54:30 437.445
Cosmos 2491 18 Jan 00:48:33 00:50:15 11° 72° (ENE) 00:51:56 435.465 / 435.565
Oscar 19 18 Jan 00:49:20 00:52:05 14° 90° (E) 00:54:50 437.125/150
BEESAT 3 18 Jan 00:49:44 00:51:53 14° 40° (NE) 00:54:03 437.485
QB50P1 18 Jan 00:54:14 00:58:13 42° 288° (WNW) 01:02:11 145.935-145.965
POLYITAN 1 18 Jan 00:57:28 01:01:24 38° 289° (WNW) 01:05:19 437.675
QB50P2 18 Jan 00:58:40 01:02:31 35° 290° (WNW) 01:06:22 145.880/145.840
VELOX 1 18 Jan 01:02:51 01:05:49 17° 267° (W) 01:08:47 145.980
Cosmos 2504 18 Jan 01:06:24 01:10:46 16° 61° (ENE) 01:15:00 435.465 / 435.565
AO-85 18 Jan 01:06:49 01:09:06 15° 249° (WSW) 01:11:24 145.980
BEESAT 18 Jan 01:11:51 01:14:45 16° 62° (ENE) 01:17:40 436.000
SWISSCUBE 18 Jan 01:12:46 01:16:01 19° 63° (ENE) 01:19:16 437.505
50 SAT 18 Jan 01:14:04 01:15:21 12° 269° (W) 01:16:38 437.505
POPSAT HIP 1 18 Jan 01:21:24 01:24:42 23° 293° (WNW) 01:28:01 437.405
BEESAT 2 18 Jan 01:27:48 01:30:13 15° 41° (NE) 01:32:39 435.950
AIST 1 18 Jan 01:35:50 01:40:04 57° 79° (E) 01:44:15
DUCHIFAT 1 18 Jan 01:36:18 01:39:12 19° 294° (WNW) 01:42:07 145.980
PCSat 18 Jan 01:38:36 01:43:56 64° 116° (ESE) 01:49:19 145.827
NANOSAT C BR1 18 Jan 01:40:36 01:43:07 16° 296° (WNW) 01:45:38 145.865
DX 1 18 Jan 01:46:09 01:47:52 12° 270° (W) 01:49:35 434.975-435.025
YUBILEINY 18 Jan 01:49:00 01:57:47 64° 78° (ENE) 02:06:28 435.215
UKube-1 18 Jan 01:50:24 01:52:45 14° 268° (W) 01:55:07 .
TISAT 1 18 Jan 01:55:04 01:58:57 37° 262° (W) 02:02:51 437.305
ISS 18 Jan 01:56:45 01:59:07 18° 347° (NNW) 02:01:29 145.825
RS-15 18 Jan 02:00:32 02:12:14 56° 314° (NW) 02:24:24 29.354- 29.394
ITUPSAT 1 18 Jan 02:10:44 02:15:24 58° 72° (ENE) 02:20:06 437.325
JAS-2 18 Jan 02:14:22 02:16:06 11° 307° (NW) 02:17:52 435.910
Gurwin Techsat 1B 18 Jan 02:17:28 02:22:40 53° 100° (E) 02:27:50 435.225
BUGSAT 1 18 Jan 02:23:19 02:25:37 15° 295° (WNW) 02:27:55 437.445
BEESAT 3 18 Jan 02:26:00 02:30:01 76° 238° (WSW) 02:33:59 437.485
Oscar 19 18 Jan 02:26:44 02:31:54 69° 286° (WNW) 02:37:00 437.125/150
KKS-1 18 Jan 02:36:15 02:37:14 11° 60° (ENE) 02:38:13 437.445
Cosmos 2491 18 Jan 02:36:39 02:45:11 64° 92° (E) 02:53:45 435.465 / 435.565
BEESAT 18 Jan 02:47:22 02:52:03 59° 259° (WSW) 02:56:46 436.000
SWISSCUBE 18 Jan 02:48:47 02:53:24 51° 260° (W) 02:58:04 437.505
M-CUBED/EXP-1 PRIME 18 Jan 02:50:31 02:54:31 34° 66° (ENE) 02:58:19 437.505
Cosmos 2504 18 Jan 02:57:51 03:05:23 89° 72° (ENE) 03:12:33 435.465 / 435.565
ITAMSAT 1 18 Jan 03:03:38 03:08:06 28° 96° (E) 03:12:34 435.822/435.867
BEESAT 2 18 Jan 03:04:25 03:08:27 68° 239° (WSW) 03:12:27 435.950
MOZHAYETS 4 18 Jan 03:08:18 03:12:50 66° 74° (ENE) 03:17:23
AIST 1 18 Jan 03:15:39 03:17:05 12° 276° (W) 03:18:32
PCSat 18 Jan 03:23:36 03:27:47 22° 315° (NW) 03:32:01 145.827
AUBIESAT-1 18 Jan 03:29:18 03:33:40 73° 70° (ENE) 03:37:46 437.475
ISS 18 Jan 03:34:27 03:36:31 16° 7° (N) 03:38:36 145.825
STARS 18 Jan 03:34:58 03:38:09 20° 65° (ENE) 03:41:20 437.465
YUBILEINY 18 Jan 03:46:49 03:53:52 28° 278° (W) 04:00:55 435.215
CUBESAT XI-V 18 Jan 03:47:04 03:50:58 27° 67° (ENE) 03:54:55 437.345
ITUPSAT 1 18 Jan 03:50:54 03:53:36 15° 269° (W) 03:56:19 437.325
Gurwin Techsat 1B 18 Jan 03:58:18 04:02:14 21° 297° (WNW) 04:06:08 435.225
CUSAT 1 18 Jan 03:58:22 04:03:06 74° 97° (E) 04:09:24 437.405
AO-7 18 Jan 04:05:15 04:13:33 62° 104° (ESE) 04:21:45 29.400- 29.500
KKS-1 18 Jan 04:08:39 04:13:07 84° 259° (W) 04:17:35 437.445
RS-15 18 Jan 04:18:34 04:28:22 26° 345° (NNW) 04:38:18 29.354- 29.394
PHONESAT 2.4 18 Jan 04:22:17 04:24:27 36° 167° (SSE) 04:26:38 2401.200-2431.200
DANDE 18 Jan 04:22:33 04:25:37 26° 87° (E) 04:29:27 436.750
M-CUBED/EXP-1 PRIME 18 Jan 04:25:25 04:28:59 23° 259° (W) 04:32:24 437.505
Cosmos 2491 18 Jan 04:35:23 04:42:38 29° 293° (WNW) 04:49:57 435.465 / 435.565
AIST 2 18 Jan 04:37:15 04:40:54 27° 47° (NE) 04:44:33 435.215
ITAMSAT 1 18 Jan 04:42:53 04:47:35 36° 292° (WNW) 04:52:19 435.822/435.867
MOZHAYETS 4 18 Jan 04:48:38 04:50:26 12° 271° (W) 04:52:15
Cosmos 2504 18 Jan 04:53:47 04:57:29 15° 283° (WNW) 05:01:09 435.465 / 435.565
BRITE-PL 18 Jan 04:57:37 05:02:04 32° 94° (E) 05:06:10 437.365/2234.400
AUBIESAT-1 18 Jan 05:07:35 05:08:21 10° 264° (W) 05:09:08 437.475
STARS 18 Jan 05:10:07 05:14:13 39° 261° (W) 05:18:21 437.465
HORYU 2 18 Jan 05:10:16 05:13:17 18° 93° (E) 05:16:20 437.375
ISS 18 Jan 05:10:38 05:13:42 37° 27° (NNE) 05:16:44 145.825
